Orbital Elements at Epoch 2459200.5 (2020-Dec-17.0) TDB
Reference: JPL 32 (heliocentric ecliptic J2000)
Element | Value | Uncertainty (1-sigma) | Units |
e | .08715299142544236 | 9.899e-09 | |
a | 3.14183840093086 | 1.5705e-08 | au |
q | 2.868017785714407 | 2.9227e-08 | au |
i | 6.315035700227759 | 5.0036e-07 | deg |
node | 68.85762456693104 | 6.9724e-06 | deg |
peri | 155.9036205150389 | 1.6516e-05 | deg |
M | 335.4127946751042 | 1.2966e-05 | deg |
tp | 2459339.425145206240 (2021-May-04.92514521) | 7.3382e-05 | TDB |
period | 2034.108863263346 5.57 | 1.5251e-05 4.175e-08 | d yr |
n | .1769816780712747 | 1.327e-09 | deg/d |
Q | 3.415659016147313 | 1.7073e-08 | au |
|
| | Orbit Determination Parameters
Additional Information
|